Starlink 11241

operational
NORAD ID: 60936 Int'l Des: 2024-155 Owner: SPXS Country: US Constellation: starlink
LEOCIRCULAR

Über Starlink 11241

Beschreibung wird geladen...

Live-Position

3D-Globus wird geladen...

Nächste Überflüge

Höhenverlauf

Altitude vs Time

uPlot chart will show altitude changes over time

Zweizeiliger Elementsatz

1 60936U 24155N 26037.52110008 -.00004097 00000-0 -29002-4 0 9995
2 60936 53.1594 135.1417 0001337 125.7777 234.3365 15.69682978 83508
Epoch: 6. Feb. 2026 • Age: 11 hours

Aktueller Status

Höhe 361.3 km
Geschwindigkeit 7.70 km/s
Subsatellitenpunkt 28.46°N, 29.27°E
Startdatum 31. Aug. 2024
Alter 1.4 years
Typ internet

Technische Details

Klassifizierung Payload
Masse 960.00 kg
Trockenmasse 910.00 kg
Gesamtmasse 960.00 kg
Länge 0.30 m
Durchmesser 4.10 m
Spannweite 29.00 m
Form Box + pan
Hersteller SPXS
Bus-Typ Starlink V2MD
Phasenstatus In Orbit
Besitzer/Staat SPXS/US

Große Konstellationen

Loading constellations...